Location: Hylvaty SDH
(49.9612°N, 16.4057°E)
Time: 01:28:42
(UTC+01:00)

Transit 4A - Pass Details

Date: 12 August 2020
Orbit: 864 x 981 km, 66.8° (Epoch: 15 January)

Event Time Altitude Azimuth Distance (km) Brightness Sun altitude
Rises 13:07:53 0° 284° (WNW) 3,548 10.9 54.7°
Reaches altitude 10° 13:11:14 10° 303° (WNW) 2,631 10.2 54.7°
Maximum altitude 13:15:24 19° 346° (NNW) 2,109 9.7 54.6°
Drops below altitude 10° 13:19:40 10° 29° (NNE) 2,689 10.1 54.5°
Sets 13:23:09 0° 48° (NE) 3,655 10.7 54.5°
